Weather History for K04V - May, 2013

Change the Weather History Date:

Tuesday, May 14, 2013

  Actual Average (KALS) Record (KALS)
Temperature  
Mean Temperature - 51 °F  
Max Temperature - 69 °F 82 °F (1978)
Min Temperature - 33 °F 17 °F (1933)
Degree Days  
Heating Degree Days 14  
Month to date heating degree days 227  
Since 1 July heating degree days 8227  
Cooling Degree Days 0  
Month to date cooling degree days 0  
Year to date cooling degree days 0  
Moisture  
Dew Point -    
Average Humidity    
Maximum Humidity    
Minimum Humidity    
Precipitation  
Precipitation 0.11 in 0.02 in 0.40 in (1987)
Month to date precipitation 0.29  
Year to date precipitation 1.93  
Snow  
Snow 0.00 in 0.10 in 1.20 in (1967)
Month to date snowfall 0.8  
Since 1 July snowfall 27.5  
Snow Depth -    
Sea Level Pressure  
Sea Level Pressure 30.26 in    
Wind  
Wind Speed 10 mph (NNW)    
Max Wind Speed 31 mph    
Max Gust Speed 39 mph    
Visibility 10 miles    
Events Rain , Thunderstorm    
T = Trace of Precipitation, MM = Missing Value Source: NWS Daily Summary

Daily Weather History Graph

Daily Weather History Graph

Search for Another Location

Airport or City:

Trip Planner

Search our weather history database for the weather conditions in past years. The results will help you decide how hot, cold, wet, or windy it might be!

Date:

Astronomy

May. 14, 2013 Rise Set
Actual Time 5:54 AM MDT 8:07 PM MDT
Civil Twilight 5:25 AM MDT 8:37 PM MDT
Nautical Twilight 4:49 AM MDT 9:13 PM MDT
Astronomical Twilight 4:09 AM MDT 9:53 PM MDT
Moon 9:36 AM MDT (5/14) 11:57 PM MDT (5/14)
Length of Visible Light 15h 12m
Length of Day
14h 13m
Waxing Crescent, 19% of the Moon is Illuminated
May 14
Waxing Crescent
May 17
First Quarter
May 24
Full
May 31
Last Quarter
Jun 8
New

Hourly Weather History & Observations

Time (MDT) Temp. Dew Point Humidity Pressure Visibility Wind Dir Wind Speed Gust Speed Precip Events Conditions
12:16 AM - - N/A% 30.35 in 10.0 mi NNW 11.5 mph - N/A   Clear
12:36 AM - - N/A% 30.34 in 10.0 mi NNW 10.4 mph - N/A   Clear
12:56 AM - - N/A% 30.34 in 10.0 mi NW 6.9 mph - N/A   Clear
1:15 AM - - N/A% 30.33 in 10.0 mi NNW 9.2 mph - N/A   Clear
1:36 AM - - N/A% 30.33 in 10.0 mi NNW 8.1 mph - N/A   Clear
1:56 AM - - N/A% 30.32 in 10.0 mi NNW 9.2 mph - N/A   Clear
2:15 AM - - N/A% 30.31 in 10.0 mi NNW 10.4 mph - N/A   Clear
2:36 AM - - N/A% 30.31 in 10.0 mi NNW 8.1 mph - N/A   Clear
2:56 AM - - N/A% 30.31 in 10.0 mi NNW 12.7 mph - N/A   Clear
3:16 AM - - N/A% 30.31 in 10.0 mi NNW 11.5 mph - N/A   Clear
3:35 AM - - N/A% 30.31 in 10.0 mi NNW 11.5 mph - N/A   Clear
3:56 AM - - N/A% 30.31 in 10.0 mi NNW 13.8 mph - N/A   Clear
4:16 AM - - N/A% 30.31 in 10.0 mi NW 16.1 mph - N/A   Clear
4:36 AM - - N/A% 30.31 in 10.0 mi NNW 12.7 mph - N/A   Clear
4:56 AM - - N/A% 30.31 in 10.0 mi NNW 10.4 mph - N/A   Clear
5:16 AM - - N/A% 30.31 in 10.0 mi NNW 3.5 mph - N/A   Clear
5:36 AM - - N/A% 30.29 in 10.0 mi NW 13.8 mph - N/A   Clear
5:56 AM - - N/A% 30.29 in 10.0 mi NNW 13.8 mph - N/A   Clear
6:16 AM - - N/A% 30.29 in 10.0 mi NNW 12.7 mph - N/A   Clear
6:36 AM - - N/A% 30.30 in 10.0 mi NW 11.5 mph - N/A   Clear
6:56 AM - - N/A% 30.31 in 10.0 mi NNW 12.7 mph - N/A   Clear
7:16 AM - - N/A% 30.31 in 10.0 mi NNW 12.7 mph - N/A   Clear
7:36 AM - - N/A% 30.31 in 10.0 mi NNW 11.5 mph - N/A   Clear
7:56 AM - - N/A% 30.31 in 10.0 mi NW 11.5 mph - N/A   Clear
8:16 AM - - N/A% 30.31 in 10.0 mi NW 13.8 mph - N/A   Clear
8:35 AM - - N/A% 30.31 in 10.0 mi WNW 8.1 mph - N/A   Clear
8:56 AM - - N/A% 30.31 in 10.0 mi Calm Calm - N/A   Clear
9:16 AM - - N/A% 30.31 in 10.0 mi South 8.1 mph - N/A   Clear
9:36 AM - - N/A% 30.31 in 10.0 mi SSE 5.8 mph - N/A   Clear
9:56 AM - - N/A% 30.30 in 10.0 mi SSE 5.8 mph - N/A   Clear
10:16 AM - - N/A% 30.29 in 10.0 mi SSE 5.8 mph - N/A   Clear
10:36 AM - - N/A% 30.29 in 10.0 mi South 6.9 mph - N/A   Clear
10:56 AM - - N/A% 30.28 in 10.0 mi South 6.9 mph - N/A   Clear
11:16 AM - - N/A% 30.27 in 10.0 mi South 5.8 mph - N/A   Clear
11:36 AM - - N/A% 30.26 in 10.0 mi SSE 6.9 mph - N/A   Clear
11:56 AM - - N/A% 30.25 in 10.0 mi ENE 4.6 mph - N/A   Clear
12:16 PM - - N/A% 30.24 in 10.0 mi Calm Calm - N/A   Clear
12:36 PM - - N/A% 30.22 in 10.0 mi WSW 5.8 mph - N/A   Scattered Clouds
12:56 PM - - N/A% 30.21 in 10.0 mi South 9.2 mph - N/A   Clear
1:16 PM - - N/A% 30.19 in 10.0 mi Calm Calm - N/A   Clear
1:36 PM - - N/A% 30.19 in 10.0 mi WSW 3.5 mph - N/A   Clear
1:56 PM - - N/A% 30.17 in 10.0 mi Calm Calm - N/A   Mostly Cloudy
2:16 PM - - N/A% 30.17 in 10.0 mi North 8.1 mph 18.4 mph N/A   Mostly Cloudy
2:36 PM - - N/A% 30.17 in 10.0 mi NNE 10.4 mph 16.1 mph N/A Thunderstorm Overcast
2:55 PM - - N/A% 30.17 in 10.0 mi NNE 3.5 mph - N/A Thunderstorm Thunderstorm
3:16 PM - - N/A% 30.17 in 10.0 mi NNW 25.3 mph 31.1 mph N/A   Light Drizzle
3:36 PM - - N/A% 30.20 in 3.0 mi South 4.6 mph 25.3 mph 0.11 in Rain Heavy Rain
3:56 PM - - N/A% 30.21 in 7.0 mi NE 9.2 mph - N/A Rain Rain
4:16 PM - - N/A% 30.20 in 10.0 mi North 31.1 mph 39.1 mph N/A   Light Drizzle
4:35 PM - - N/A% 30.20 in 10.0 mi North 20.7 mph 32.2 mph N/A   Overcast
4:56 PM - - N/A% 30.21 in 10.0 mi NNE 23.0 mph - N/A   Overcast
5:16 PM - - N/A% 30.21 in 10.0 mi NW 17.3 mph - N/A   Overcast
5:36 PM - - N/A% 30.21 in 10.0 mi NW 15.0 mph - N/A   Mostly Cloudy
5:56 PM - - N/A% 30.21 in 10.0 mi North 15.0 mph - N/A   Mostly Cloudy
6:15 PM - - N/A% 30.21 in 10.0 mi NNW 15.0 mph 21.9 mph N/A   Mostly Cloudy
6:36 PM - - N/A% 30.19 in 10.0 mi NNW 15.0 mph - N/A   Mostly Cloudy
6:56 PM - - N/A% 30.19 in 10.0 mi NW 17.3 mph - N/A   Scattered Clouds
7:16 PM - - N/A% 30.19 in 10.0 mi NW 16.1 mph - N/A   Mostly Cloudy
7:35 PM - - N/A% 30.20 in 10.0 mi NW 15.0 mph - N/A   Overcast
7:55 PM - - N/A% 30.23 in 10.0 mi SSW 8.1 mph - N/A Rain Rain
8:16 PM - - N/A% 30.23 in 10.0 mi SW 13.8 mph 17.3 mph N/A   Overcast
8:56 PM - - N/A% 30.25 in 10.0 mi NNE 5.8 mph - N/A   Overcast
9:16 PM - - N/A% 30.25 in 10.0 mi Calm Calm - N/A   Overcast
9:36 PM - - N/A% 30.25 in 10.0 mi Calm Calm - N/A   Overcast
9:56 PM - - N/A% 30.25 in 10.0 mi North 5.8 mph - N/A   Mostly Cloudy
10:16 PM - - N/A% 30.25 in 10.0 mi East 3.5 mph - N/A   Mostly Cloudy
10:36 PM - - N/A% 30.24 in 10.0 mi NNE 3.5 mph - N/A   Overcast
10:56 PM - - N/A% 30.24 in 10.0 mi ESE 8.1 mph - N/A   Scattered Clouds
11:16 PM - - N/A% 30.24 in 10.0 mi ESE 9.2 mph - N/A   Scattered Clouds
11:36 PM - - N/A% 30.24 in 10.0 mi ESE 5.8 mph - N/A   Scattered Clouds
11:55 PM - - N/A% 30.23 in 10.0 mi West 5.8 mph - N/A   Scattered Clouds